CAPE
0 0 0 0 0 0 0 0 0 0 0 0 0 0 0 0 1 0 0 0 0 0 0 0 0 0 0 0 0 0 0 0 0 3 2 2 3 3 2 1 1 1 0
0 0 0 0 0 0 0 0 0 0 0 0 0 0 0 0 0 1 0 0 0 0 0 0 0 0 0 0 0 0 0 0 0 1 2 3 3 2 2 2 1 1 1
0 0 0 0 0 0 0 0 0 0 0 0 0 0 0 0 2 1 0 0 0 0 0 0 0 0 0 0 0 0 0 0 1 0 2 2 3 2 2 2 2 1 0
0 0 0 0 0 0 0 0 0 0 0 0 0 0 0 0 0 0 0 0 0 0 0 0 0 0 0 0 0 0 0 0 2 3 4 4 3 3 3 3 2 3 2
0 0 0 0 0 0 0 0 0 0 0 0 0 0 0 0 0 2 0 0 0 0 0 0 0 0 0 0 0 0 0 0 2 2 5 4 4 3 3 3 5 3 1
0 0 0 0 0 0 0 0 0 0 0 0 0 0 0 0 1 0 0 0 0 0 0 0 0 0 0 0 0 0 0 0 0 3 4 2 5 3 1 5 5 4 1
0 0 0 0 0 0 0 0 0 0 0 0 0 0 0 0 0 1 0 0 0 0 0 0 0 0 0 0 0 0 0 0 0 0 0 1 4 1 2 4 3 1 1
0 0 0 0 0 0 0 0 0 0 0 0 0 0 0 0 0 0 0 0 0 0 0 0 0 0 0 0 0 0 0 0 0 0 0 0 0 0 0 0 1 1 2
0 0 0 0 0 0 0 0 0 0 0 0 0 0 0 0 0 0 0 0 0 0 0 0 0 0 0 0 0 0 1 1 0 0 0 0 0 0 0 0 0 0 2
0 0 0 0 0 0 0 0 0 0 0 0 0 0 0 0 0 0 0 0 0 0 0 0 0 0 0 0 0 0 0 1 0 0 0 0 0 0 0 0 0 0 0
0 0 0 0 0 0 0 0 0 0 0 0 0 0 0 0 0 0 0 0 0 0 0 0 0 0 1 1 0 0 0 1 2 0 1 1 1 1 0 0 0 0 0
0 0 0 0 0 0 0 0 0 0 0 0 0 0 1 1 0 1 0 0 0 0 0 0 0 1 1 1 1 1 1 2 2 2 1 3 1 0 0 0 0 0 0
0 0 0 0 0 0 0 0 0 0 0 0 0 0 0 1 1 3 2 1 0 0 0 0 0 4 4 3 1 1 1 1 1 0 0 1 0 1 1 0 0 0 0
0 0 0 0 0 0 0 0 0 0 0 0 0 0 0 1 1 2 2 2 1 1 1 3 5 6 2 2 5 5 5 1 0 0 0 3 3 3 2 1 0 0 0
0 0 0 0 0 0 0 0 0 0 0 0 0 0 0 0 0 0 1 1 1 1 3 4 5 5 4 4 6 6 5 2 0 1 1 1 1 1 0 1 2 0 0
0 0 0 0 0 0 0 0 0 0 0 0 1 1 0 0 1 0 0 0 2 2 3 4 4 6 5 5 6 6 6 2 1 3 3 2 0 0 0 1 0 1 0
0 0 0 0 0 0 0 0 0 0 0 0 0 1 1 1 1 1 0 1 1 2 0 0 3 8 4 8 8 4 3 3 0 0 0 0 0 0 0 0 0 0 0
0 0 0 0 0 1 0 0 0 0 0 0 0 0 1 1 2 1 0 2 4 3 2 1 1 3 5 4 9 6 6 8 1 0 0 0 0 0 0 0 0 0 0
0 0 0 0 0 0 2 3 1 0 0 0 0 0 0 1 0 1 1 1 2 4 5 4 3 3 4 4 4 4 5 5 0 0 0 0 0 0 0 0 0 0 0
0 0 0 0 0 0 0 0 0 1 0 0 0 0 0 0 1 1 3 4 3 3 3 3 3 2 2 3 3 3 3 4 0 0 0 0 0 0 0 0 0 0 0
0 0 0 0 0 0 0 0 1 0 1 1 0 0 0 0 0 0 1 3 3 3 3 2 2 1 1 2 2 2 3 5 0 0 0 0 0 0 0 0 0 0 0
0 0 0 0 0 0 0 0 0 0 1 1 0 1 2 0 0 0 0 1 2 3 1 2 2 0 2 2 2 3 4 4 0 0 0 0 0 0 0 0 0 0 0
1 1 0 0 1 1 0 1 1 0 0 0 1 2 2 2 0 0 0 1 1 2 2 2 1 1 1 1 1 0 1 0 0 0 0 0 0 0 0 0 0 0 0
0 0 0 0 0 0 1 1 0 1 1 1 1 1 2 3 1 0 0 0 1 1 1 2 2 2 1 2 2 1 0 0 0 0 0 0 0 0 0 0 0 0 0
0 0 0 0 0 0 0 0 0 0 0 0 0 1 0 0 1 0 0 0 0 1 1 1 2 2 1 1 1 1 0 0 0 0 0 0 0 0 0 0 0 0 0
0 0 0 0 0 0 0 1 1 0 0 0 0 0 0 0 0 1 0 1 1 1 1 1 1 1 1 1 1 0 0 0 0 0 0 0 0 0 0 0 0 0 0
CIN
0 0 0 0 0 0 0 0 0 0 0 0 0 0 0 0 -3 -55 0 0 0 0 0 0 0 0 0 0 0 0 0 0 0 0 0 0 0 0 0 0 0 0 0
0 0 0 0 0 0 0 0 0 0 0 0 0 0 0 0 -3 -63 0 0 0 0 0 0 0 0 0 0 0 0 0 0 0 0 0 0 0 0 0 0 0 0 0
0 0 0 0 0 0 0 0 0 0 0 0 0 0 0 0 -68 -65 0 0 0 0 0 0 0 0 0 0 0 0 0 0 0 0 0 0 0 0 0 0 0 0 0
0 0 0 0 0 0 0 0 0 0 0 0 0 0 0 0 -29 0 0 0 0 0 0 0 0 0 0 0 0 0 0 0 0 0 0 0 0 0 0 0 0 0 0
0 0 0 0 0 0 0 0 0 0 0 0 0 0 0 0 -12 -99 0 0 0 0 0 0 0 0 0 0 0 0 0 0 0 0 0 0 0 0 0 0 0 0 0
0 0 0 0 0 0 0 0 0 0 0 0 0 0 0 0 -65 0 0 0 0 0 0 0 0 0 0 0 0 0 0 0 0 0 0 0 0 0 0 0 0 0 0
0 0 0 0 0 0 0 0 0 0 0 0 0 0 0 0 0 -84 0 0 0 0 0 0 0 0 0 0 0 0 0 0 0 0 0 0 0 0 0 0 0 0 0
0 0 0 0 0 0 0 0 0 0 0 0 0 0 0 0 0 -24 0 0 0 0 0 0 0 0 0 0 0 0 0 0 0 0 0 0 0 0 0 0 0 0 0
0 0 0 0 0 0 0 0 0 0 0 0 0 0 0 0 0 0 0 0 0 0 0 0 0 0 0 0 0 0 0 0 0 0 0 0 0 0 0 0 0 0 0
0 0 0 0 0 0 0 0 0 0 0 0 0 0 0 0 0 0 0 0 0 0 0 0 0 0 0 0 0 0 0 0 0 0 0 0 0 0 0 0 0 0 0
0 0 0 0 0 0 0 0 0 0 0 0 0 0 0 0 0 0 0 0 0 0 0 0 0 0 0 0 0 0 0 0 0 0 0 0 0 0 0 0 0 0 0
0 0 0 0 0 0 0 0 0 0 0 0 0 0 0 0 0 0 0 0 0 0 0 0 0 0 0 0 0 0 0 0 0 0 0 0 0 0 0 0 0 0 0
0 0 0 0 0 0 0 0 0 0 0 0 0 0 0 0 0 0 0 0 0 0 0 0 0 0 0 0 0 0 0 0 0 0 0 0 0 0 0 0 0 0 0
0 0 0 0 0 0 0 0 0 0 0 0 0 0 0 0 0 0 0 0 0 0 0 0 0 0 0 0 0 0 0 0 0 0 0 0 0 0 0 0 0 0 0
0 0 0 0 0 0 0 0 0 0 0 0 0 0 0 0 0 0 0 0 0 0 0 0 0 0 0 0 0 0 0 0 0 0 0 0 0 0 0 0 0 0 0
0 0 0 0 0 0 0 0 0 0 0 0 0 0 0 0 0 0 0 0 0 0 0 0 0 0 0 0 0 0 0 0 0 0 0 0 0 0 0 0 0 0 0
0 0 0 0 0 0 0 0 0 0 0 0 0 0 0 0 0 0 0 0 0 0 0 0 0 0 0 0 0 0 0 0 0 0 0 0 0 0 0 0 0 0 0
0 0 0 0 0 0 0 0 0 0 0 0 0 0 0 0 0 0 0 0 0 0 0 0 0 0 0 0 0 0 0 0 0 0 0 0 0 0 0 0 0 0 0
0 0 0 0 0 0 0 0 0 0 0 0 0 0 0 0 0 0 0 0 0 0 0 0 0 0 0 0 0 0 0 0 0 0 0 0 0 0 0 0 0 0 0
0 0 0 0 0 0 0 0 0 0 0 0 0 0 0 0 0 0 0 0 0 0 0 0 0 0 0 0 0 0 0 0 0 0 0 0 0 0 0 0 0 0 0
0 0 0 0 0 0 0 0 0 0 0 0 0 0 0 0 0 0 0 0 0 0 0 0 0 0 0 0 0 0 0 0 0 0 0 0 0 0 0 0 0 0 0
0 0 0 0 0 0 0 0 0 0 0 0 0 0 0 0 0 0 0 0 0 0 0 0 0 0 0 0 0 0 0 0 0 0 0 0 0 0 0 0 0 0 0
0 0 0 0 0 0 0 0 0 0 0 0 0 0 0 0 0 0 0 0 0 0 0 0 0 0 0 0 0 0 0 0 0 0 0 0 0 0 0 0 0 0 0
0 0 0 0 0 0 0 0 0 0 0 0 0 0 0 0 0 0 0 0 0 0 0 0 0 0 0 0 0 0 0 0 0 0 0 0 0 0 0 0 0 0 0
0 0 0 0 0 0 0 0 0 0 0 0 0 0 0 0 0 0 0 0 0 0 0 0 0 0 0 0 0 0 0 0 0 0 0 0 0 0 0 0 0 0 0
0 0 0 0 0 0 0 0 0 0 -1 0 0 0 0 0 0 0 0 0 0 0 0 0 0 0 0 0 0 0 0 0 0 0 0 0 0 0 0 0 0 0 0
Wind_Speed
9 10 11 12 11 11 11 12 13 13 13 12 14 15 14 15 17 19 21 22 21 23 19 3 9 10 15 6 3 1 2 4 9 5 5 3 2 1 2 5 8 10 12
9 10 10 12 11 10 10 11 12 12 13 12 13 14 14 14 17 19 20 20 20 20 23 18 8 8 9 5 1 3 3 4 12 10 4 5 4 3 2 5 7 10 11
9 9 10 11 11 9 9 11 11 11 12 12 11 13 14 15 18 19 20 21 20 18 18 19 17 11 16 15 10 9 6 3 4 10 5 7 6 2 2 5 6 9 6
10 10 10 10 10 10 9 11 10 11 11 10 10 11 13 15 16 18 20 20 20 16 13 15 14 15 14 9 7 8 6 4 5 6 7 3 4 2 2 2 4 7 8
11 12 11 10 10 10 10 10 11 11 11 11 9 9 10 11 14 17 19 19 20 20 17 12 16 13 8 4 7 6 7 8 7 7 5 4 2 4 2 9 8 8 9
10 12 12 11 10 9 9 9 11 11 12 11 8 9 9 9 13 16 17 18 20 22 23 19 12 14 12 10 10 16 18 19 14 10 5 15 13 6 16 11 4 13 16
12 12 11 11 11 10 10 10 11 11 11 11 8 7 10 8 10 14 17 17 20 23 24 23 19 20 17 20 21 23 22 20 18 19 22 19 18 25 6 13 23 20 15
13 13 13 12 12 12 12 12 11 11 11 10 10 7 10 7 5 10 14 15 17 21 24 27 28 29 28 25 22 18 15 17 14 8 19 10 6 9 6 13 8 9 3
16 16 14 13 13 15 12 11 13 12 11 9 11 9 8 5 3 6 9 13 18 22 24 24 25 26 24 18 14 11 7 4 11 12 2 3 5 10 5 4 2 3 6
18 19 18 16 15 14 13 12 13 13 9 11 8 14 11 7 2 3 6 6 12 14 11 14 19 19 18 16 13 12 10 8 6 2 2 1 4 6 8 4 8 4 4
18 18 18 17 16 16 13 14 14 12 10 9 11 15 16 11 10 3 5 6 7 6 7 10 7 12 15 12 9 10 5 7 6 6 1 4 5 4 5 6 3 2 2
18 17 17 17 18 19 18 16 14 14 11 6 16 9 18 15 14 12 7 7 7 7 7 5 4 9 9 5 2 3 5 4 3 2 0 3 4 4 4 5 7 6 10
19 18 18 18 18 18 19 19 19 17 16 14 13 15 16 19 16 18 17 14 10 9 10 9 8 5 4 4 3 3 4 2 1 1 1 5 6 4 3 4 6 6 8
21 21 20 18 17 15 16 18 19 20 19 19 19 19 19 19 21 19 21 20 17 16 15 14 11 10 10 8 6 6 6 4 4 4 4 7 6 5 3 4 3 2 4
23 22 22 21 20 21 17 17 19 22 24 24 25 24 24 24 23 23 20 21 21 20 16 15 16 15 13 12 11 10 9 8 5 7 7 8 9 8 5 4 2 2 3
25 26 25 23 22 20 20 23 25 24 27 30 30 29 28 29 24 23 23 21 23 20 24 24 22 19 18 16 15 15 14 10 8 7 9 8 8 7 6 4 3 3 3
28 28 27 26 25 25 25 25 27 26 24 24 30 29 33 30 29 28 28 23 20 19 27 26 26 24 21 20 18 16 15 14 12 11 9 9 9 8 7 6 5 4 4
29 28 27 26 26 26 27 27 27 28 30 28 28 31 32 33 29 28 25 27 27 25 29 27 26 26 26 22 21 20 18 16 15 14 13 12 11 9 9 8 7 7 6
29 28 28 28 27 26 26 26 24 27 30 34 32 29 28 29 32 29 26 28 32 31 30 33 30 25 26 26 24 22 19 18 17 15 15 13 13 12 11 10 8 8 7
30 28 28 28 28 27 26 25 24 23 29 33 32 30 28 27 29 29 31 32 30 34 34 33 32 31 29 26 25 24 22 19 18 17 16 15 14 13 13 11 10 10 9
31 30 29 29 28 27 28 29 27 26 26 33 33 30 28 30 33 32 36 35 35 31 35 36 32 30 28 27 26 25 23 21 20 18 17 17 16 15 15 13 12 11 11
31 31 29 29 29 30 30 30 32 32 32 33 34 33 32 29 33 32 33 34 33 32 31 32 33 32 27 26 25 25 24 23 21 20 20 19 18 17 16 15 14 13 13
31 31 30 30 30 31 31 32 34 35 35 35 34 33 33 34 34 34 35 35 33 35 32 28 31 32 32 28 26 27 28 27 24 22 21 19 19 19 18 17 16 15 15
32 32 33 33 32 32 33 33 34 36 37 38 37 36 34 33 34 35 35 35 35 36 35 32 30 30 29 30 31 29 28 28 26 24 22 21 21 21 20 19 18 17 17
33 34 34 34 34 34 34 34 35 36 38 39 39 38 37 36 35 34 34 36 35 34 33 35 34 32 32 30 28 27 29 29 27 26 25 24 23 22 22 21 20 19 19
35 35 36 36 37 37 38 38 37 37 38 40 41 41 40 39 37 37 35 34 35 35 36 35 35 36 33 32 30 29 28 27 27 27 26 25 25 25 24 23 22 21 20
Wind_Direction
358 6 11 11 20 30 41 38 47 52 57 69 63 65 80 83 84 96 101 108 104 116 103 71 90 104 109 127 123 149 208 169 124 217 229 229 226 84 330 345 1 7 14
339 349 359 4 14 24 38 37 41 50 52 66 73 73 86 105 108 114 114 113 111 106 118 108 104 110 112 128 151 38 71 113 122 126 197 229 244 274 341 356 349 5 20
321 333 344 352 3 16 32 30 35 42 46 53 76 77 97 116 113 118 121 120 117 108 106 114 116 108 117 110 92 79 65 114 160 131 189 243 252 290 11 358 358 24 321
303 313 327 339 354 0 11 19 30 28 34 43 72 91 66 110 111 111 117 121 124 113 108 118 120 122 121 112 90 88 73 107 141 146 132 204 248 297 342 33 10 273 267
291 299 310 325 339 347 353 3 12 13 13 17 34 58 47 58 114 117 119 117 121 125 117 118 126 126 122 102 106 98 98 112 140 147 154 208 192 135 158 252 246 253 261
284 290 301 313 327 336 347 356 356 0 353 353 17 8 19 45 111 125 120 117 123 126 128 124 118 124 122 111 107 115 119 121 121 124 137 132 133 234 231 238 234 238 240
287 291 296 304 314 326 332 342 346 349 351 337 350 10 342 4 104 123 128 121 127 137 135 131 126 127 119 117 117 124 125 127 131 137 143 143 141 155 145 234 223 233 256
285 288 291 297 306 312 318 323 337 343 338 335 323 343 333 349 39 108 119 120 122 129 137 140 134 135 134 128 122 115 111 124 129 122 144 143 236 141 166 238 244 270 353
285 285 288 290 296 302 310 318 322 331 335 330 308 313 328 337 17 93 104 110 118 125 128 128 130 134 132 124 119 105 76 347 274 262 292 125 146 142 162 171 218 100 306
293 287 288 290 292 298 305 310 319 323 333 321 312 287 306 303 321 118 119 120 121 121 115 121 133 135 134 132 126 118 103 91 79 319 289 169 155 157 147 217 133 114 342
309 299 291 290 292 296 302 303 309 318 322 330 305 285 284 285 275 231 168 161 157 156 140 135 135 135 138 133 128 123 100 96 78 86 296 247 233 210 236 259 266 109 43
322 314 306 300 295 292 290 294 301 303 310 312 295 303 277 278 270 263 236 222 193 196 181 206 183 149 145 152 143 108 108 96 76 67 277 242 226 216 250 272 287 304 311
335 327 316 310 302 299 294 288 289 292 292 286 291 292 284 271 274 262 258 255 234 235 249 243 245 198 196 238 214 159 143 162 220 149 221 258 256 245 268 295 305 313 326
333 329 326 321 314 315 308 294 290 286 286 285 277 281 282 278 272 267 260 259 256 256 258 258 250 250 256 262 248 252 261 238 236 255 268 267 262 258 250 293 308 312 318
323 325 323 320 315 299 308 302 297 290 284 282 276 277 275 275 275 269 264 259 258 256 253 255 256 256 255 257 260 260 262 255 238 262 262 263 259 258 263 286 293 290 293
316 311 313 315 317 314 308 299 290 291 283 276 277 276 276 273 279 274 268 265 261 253 257 257 255 256 254 251 257 256 253 236 233 253 256 262 256 243 239 264 264 262 231
311 308 308 308 308 306 302 298 292 292 295 291 278 280 272 275 274 272 265 265 263 256 259 258 256 257 256 255 254 256 240 244 241 245 250 255 258 246 232 235 239 255 255
308 305 306 306 305 302 300 299 297 293 286 288 285 279 274 270 274 272 272 262 262 262 260 260 258 258 259 257 253 250 252 244 237 246 257 262 262 236 228 232 235 245 231
309 307 304 301 302 304 302 302 308 298 287 277 282 287 283 277 269 270 269 266 262 262 262 262 263 259 258 258 257 251 245 238 237 245 257 259 260 248 244 243 244 238 233
310 308 304 302 301 301 302 303 306 308 291 280 281 287 286 283 277 274 266 266 267 262 263 263 263 261 259 259 256 251 246 242 238 245 253 258 258 249 245 239 239 232 228
306 306 305 302 301 300 298 295 297 300 299 282 283 287 285 281 277 279 266 265 265 268 264 262 260 259 261 261 255 251 246 240 243 247 253 256 254 246 246 242 245 245 242
304 303 304 300 299 297 295 295 290 291 290 288 285 283 281 286 280 280 275 269 267 268 269 263 260 258 261 259 255 250 245 242 246 248 254 256 254 250 246 245 245 245 237
305 302 301 301 299 297 296 293 288 287 285 285 287 286 284 279 279 279 275 276 271 265 268 266 263 261 260 259 256 251 249 249 251 251 254 254 250 245 243 243 242 241 235
302 301 299 298 299 298 295 294 291 286 283 282 284 284 285 285 282 279 279 277 275 271 267 267 267 261 259 259 259 255 254 252 252 252 254 256 253 249 248 248 246 241 238
301 300 300 299 297 297 296 295 293 290 285 283 283 284 284 284 284 284 282 279 278 278 274 268 267 266 260 257 255 252 254 251 250 250 254 255 252 247 248 249 246 244 244
302 301 299 298 297 296 294 293 293 292 289 286 283 282 283 283 284 282 283 283 281 280 277 276 272 265 264 260 255 252 249 245 245 246 252 253 252 250 249 248 243 244 239